#timestamp,LO_Frequency,Hit,StdDev 
1514498415.3,286046998.0,N
1514498435.2,286046995.4,N
1514498455.0,286046997.5,N
1514498455.9,286046997.5,N
1514498475.8,286046997.2,N
1514498495.6,286046998.9,N
1514498515.4,286046998.8,N
1514498535.3,286047000.1,N
1514498555.1,286047000.5,N
1514498575.9,286046996.5,N
1514498595.7,286046999.1,N
1514498615.5,286046997.6,N
1514498635.4,286046997.9,N
1514498655.2,286046997.7,N
1514498675.1,286046996.8,N
1514498676.0,286046996.8,N
1514498695.8,286046999.2,N
1514498715.6,286046997.3,N
1514498735.5,286046997.1,N
1514498755.3,286046999.5,N
1514498775.1,286046996.8,N
1514498795.9,286046998.8,N
1514498815.7,286046999.4,N
1514498835.6,286046998.6,N
1514498855.4,286046997.2,N
1514498875.2,286046997.8,N
1514498895.1,286046995.9,N
1514498896.0,286046995.9,N
1514498915.8,286046993.5,Y
1514498935.7,286046997.1,P
1514498955.5,286046998.3,P
1514498975.3,286046998.6,N
1514498995.2,286047002.4,Y
1514499015.0,286047003.4,P
1514499015.9,286047003.4,N
1514499035.8,286047003.0,N
1514499055.6,286047005.9,N
1514499075.4,286047007.1,N
1514499095.3,286047004.6,N
1514499115.1,286047003.5,N
1514499135.8,286047004.6,N
1514499155.7,286047004.9,N
1514499175.5,286047005.8,N
1514499195.4,286047006.9,Y
1514499215.2,286047001.7,P
1514499235.0,286047003.6,P
1514499235.9,286047003.6,P
1514499255.8,286047000.1,N
1514499275.6,286047002.8,N
1514499295.5,286047001.2,N
1514499315.3,286047000.2,N
1514499335.1,286047001.0,N
1514499355.9,286046997.8,N
1514499375.7,286046996.7,N
1514499395.5,286047000.9,N
1514499415.4,286046998.3,N
1514499435.2,286046997.3,N
1514499455.1,286046996.9,N
1514499456.0,286046996.9,N
1514499475.8,286046998.8,N
1514499495.6,286046998.7,N
1514499515.5,286046997.7,N
1514499535.3,286046996.9,N
1514499555.2,286046996.7,N
1514499575.9,286046996.5,N
1514499595.7,286046996.8,N
1514499615.6,286046997.2,N
1514499635.4,286046996.9,N
1514499655.3,286046998.2,N
1514499675.1,286047000.6,N
1514499676.0,286047000.6,N
1514499695.8,286046999.0,N
1514499715.7,286047002.7,N
1514499735.5,286047001.5,N
1514499755.3,286047004.2,N
1514499775.2,286047005.0,N
1514499795.0,286047004.9,N
1514499795.9,286047004.9,N
1514499815.8,286047004.1,N
1514499835.6,286047001.5,N
1514499855.4,286047003.9,N
1514499875.3,286046999.7,N
1514499895.1,286047000.0,N
1514499915.9,286046999.4,N
1514499935.7,286046996.5,N
1514499955.5,286046998.6,N
1514499975.4,286047001.0,N
1514499995.2,286046999.8,N
1514500015.0,286047001.0,N
1514500015.9,286047001.0,N
1514500035.8,286047000.1,N
1514500055.6,286046999.0,N
1514500075.5,286047000.7,N
1514500095.3,286047004.0,N
1514500115.1,286047004.4,N
1514500135.9,286047001.4,N
1514500155.7,286047000.6,N
1514500175.6,286047000.0,N
1514500195.4,286047001.8,N
1514500215.2,286047000.6,N
1514500235.1,286046999.6,N
1514500236.0,286046999.6,N
1514500255.8,286046998.8,N
1514500275.7,286046999.5,N
1514500295.5,286046997.3,N
1514500315.3,286046997.9,N
1514500335.2,286046995.3,N
1514500355.0,286046993.6,N
1514500355.9,286046993.6,N
1514500375.7,286046993.5,N
1514500395.6,286046995.0,N
1514500415.4,286046996.5,N
1514500435.3,286046997.7,N
1514500455.1,286046998.0,N
1514500475.8,286046996.5,N
1514500495.7,286046999.2,N
1514500515.5,286046997.2,N
1514500535.4,286046994.9,N
1514500555.2,286046996.5,N
1514500575.0,286046998.9,N
1514500575.9,286046998.9,N
1514500595.8,286046998.1,N
1514500615.6,286047000.9,N
1514500635.4,286047002.2,N
1514500655.3,286047003.8,N
1514500675.1,286047000.0,N
1514500695.9,286046997.0,N
1514500715.7,286046996.9,N
1514500735.5,286046997.5,N
1514500755.4,286046997.1,N
1514500775.2,286046998.6,N
1514500795.1,286047000.6,N
1514500796.0,286047000.6,N
1514500815.8,286046996.7,N
1514500835.6,286046999.6,N
1514500855.5,286047001.1,N
1514500875.3,286046998.2,N
1514500895.1,286046998.7,N
1514500915.9,286046999.6,N
1514500935.7,286046998.6,N
1514500955.6,286046995.3,N
1514500975.4,286046995.3,N
1514500995.2,286046999.1,N
1514501015.1,286047001.2,N
1514501016.0,286047001.2,N
1514501035.8,286046996.5,N
1514501055.7,286046997.7,N
1514501075.5,286046995.5,N
1514501095.3,286046997.9,N
1514501115.2,286046997.7,N
1514501135.0,286046996.5,N
1514501135.9,286046996.5,N
1514501155.7,286046997.0,N
1514501175.6,286046996.9,N
1514501195.4,286047001.2,N
1514501215.3,286046998.2,N
1514501235.1,286047001.1,N
1514501255.8,286047000.2,N
1514501275.7,286047000.8,N
1514501295.5,286046997.7,N
1514501315.4,286046997.7,N
1514501335.2,286046998.1,N
1514501355.0,286046997.2,N
1514501355.9,286046997.2,N
1514501375.8,286046998.3,N
1514501395.6,286047002.7,N
1514501415.5,286047000.4,N
1514501435.3,286046998.1,N
1514501455.1,286046998.3,N
1514501475.9,286046996.5,N
1514501495.7,286046997.1,N
1514501515.5,286046997.9,N
1514501535.4,286046995.8,N
1514501555.2,286046997.4,N
1514501575.1,286046998.1,N
1514501576.0,286046998.1,N
1514501595.8,286046999.9,N
1514501615.6,286047000.4,N
1514501635.5,286047002.7,N
1514501655.3,286046999.1,N
1514501675.1,286046996.6,N
1514501695.9,286046997.7,N
1514501715.7,286046999.6,N
1514501735.6,286047000.0,N
1514501755.4,286047000.2,N
1514501775.2,286046998.1,N
1514501795.1,286046997.3,N
1514501796.0,286046997.3,N
1514501815.8,286046994.9,Y
1514501835.7,286046997.6,P
1514501855.5,286046996.6,P
1514501875.3,286046999.2,N
1514501895.2,286046998.5,N
1514501915.0,286046999.3,N
1514501915.9,286046999.3,N
1514501935.8,286047000.4,N
1514501955.6,286047002.0,N
1514501975.4,286047000.1,N
1514501995.3,286047000.7,N
